Regional Weather Roundup
Issued by NWS Charleston, SC

Current Version | Previous Version | Graphics & Text | Print | Product List | Glossary On
Versions: 1 2 3 4 5 6 7 8 9 10 11 12 13 14 15 16 17 18 19 20 21 22 23 24 25 26 27 28 29 30 31 32 33 34 35 36 37 38 39 40 41 42 43 44 45 46 47 48 49 50
944
ASUS42 KCHS 231327
RWRCHS

Regional Weather Roundup
National Weather Service Charleston SC
800 AM EST FRI FEB 23 2018

NOTE: "fair" indicates few or no clouds below 12,000 feet with no
significant weather and/or obstructions to visibility.

Not all stations are quality controlled. Use data with caution,
especially dewpoint observations.

SCZ027-030-031-034>040-042>050-231400-
...Southeast South Carolina...

CITY           SKY/WX    TMP DP  RH WIND       PRES   REMARKS
N Charleston   FAIR      63  62  97 CALM      30.45R
Waterfront Prk   N/A     63  63 100 CALM      30.30R
Mount Pleasant PTSUNNY   63  63 100 CALM      30.46R
Johns Island   PTSUNNY   68  64  88 CALM      30.45S
Pinopolis        N/A     61  61 100 CALM      30.36R
Moncks Corner  FAIR      59  59 100 CALM      30.45S FOG
Summerville    FOG       57  57 100 CALM      30.46S VSB 1/2
Beaufort MCAS  FOG       65  65 100 CALM      30.44S VSB 3/4
Beaufort Arpt  FAIR      63  63 100 CALM      30.44S FOG
Hilton Head Is SUNNY     61  61 100 CALM      30.45R
Walterboro     FOG       59  59 100 CALM      30.46S VSB 1/2
Allendale      CLOUDY    57  59 100 CALM      30.44S FOG

...Southern Midlands and Pee Dee...

CITY           SKY/WX    TMP DP  RH WIND       PRES   REMARKS
Georgetown     FAIR      61  59  94 CALM      30.47R
Kingstree      FOG       54  54 100 CALM      30.47R VSB 1/4
Orangeburg     NOT AVBL
Barnwell       FOG       59  59 100 CALM      30.46R VSB 1/4
Aiken          CLOUDY    57  57 100 CALM      30.48S FOG
Manning        PTSUNNY   55  52  88 MISG      30.46S
Columbia       FOG       58  58 100 CALM      30.45R VSB 1
Sumter         FOG       57  57 100 CALM      30.44S VSB 1/4
Florence       FOG       60  60 100 CALM      30.47R VSB 1
Myrtle Beach   FAIR      61  61 100 N3        30.48R FOG
N Myrtle Beach CLOUDY    61  61 100 CALM      30.47R

$$

GAZ063-065-086>088-099>101-113>116-118-119-134>141-150-231400-
...Southeast Georgia...

CITY           SKY/WX    TMP DP  RH WIND       PRES   REMARKS
Savannah Arpt  FOG       61  61 100 CALM      30.44S VSB 1/4
Hunter AAF     SUNNY     63  63 100 CALM      30.41S
Fort Stewart   FOG       58  58 100 CALM      30.41R VSB 3/8
Statesboro     FOG       60  32  35 CALM      30.44S VSB 1/4
Sylvania       FOG       59  59 100 CALM      30.45S VSB 3/4
Claxton        FOG       59  59  99 CALM      30.44R VSB 1/4

...CSRA, Central and far Southeast Georgia...

CITY           SKY/WX    TMP DP  RH WIND       PRES   REMARKS
Thomson        FOG       61  60  99 S3        30.49S VSB 1/4
Augusta-Bush   FOG       61  61 100 CALM      30.44R VSB 1/4
Augusta-Daniel FOG       63  62  97 SE5       30.45R VSB 1/4
Swainsboro     FOG       61  61 100 CALM      30.45R VSB<1/4
Vidalia        FOG       61  61 100 CALM      30.43S VSB 1/2
Eastman        HAZE      60  54  81 CALM      30.45R VSB<1/4
Hazlehurst     FOG       62  61  98 CALM      30.42R VSB<1/4
Alma           FOG       60  59  96 CALM      30.41R VSB 3/4
Waycross       FOG       60  57  90 CALM      30.42R VSB 1/2
Jesup          FOG       61  57  88 CALM      30.43R VSB 1/4
Baxley         FOG       59  57  94 CALM      30.42S VSB 1/4
Brunswick      FAIR      63  61  94 CALM      30.43R
Saint Simons   FAIR      65  65 100 E3        30.42R

$$

SCZ027-028-034-036>038-045-046-048>050-GAZ119-141-231400-
...Lake and Supplemental Coastal Observations...

STATION/POSITION TIME  TEMP    WIND        PRES    WAVE   SWELL
                       AIR SEA DIR/SP/G            HT/PER HT/PER/DIR
                 (UTC) (F)     (DEG/KT/KT) (MB)    (FT/S) (FT/S/D)
Winyah Bay       1245   59        CALM     1031.0S
Lake Murray      1320   60     150/  2/  2 1030.5
ACE Basin NERRS  1245   61        CALM     1031.0R
Fort Pulaski     1300   64 62   60/  4/  4 1031.0
Sapelo Island    1300   64      90/  3     1030.0

$$

ANZ835-935-AMZ111-154-330-350-352-354-370-450-454-472-231400-
...C-MAN and Buoy Observations...

STATION/POSITION TIME  TEMP    WIND        PRES    WAVE   SWELL
                       AIR SEA DIR/SP/G            HT/PER HT/PER/DIR
                 (UTC) (F)     (DEG/KT/KT) (MB)    (FT/S) (FT/S/D)
Buoy 41004       1300   70      90/  2/  4 1031.2
Buoy 41008       1250   65 58   80/  6/  6 1029.9R   4/ 9   3/130/ 9
Folly Beach CMAN 1300   64     360/  4/  4 1031.5R
Capers Nearshore 1308   60 60   50/  4/  8 1030.8R
Fripp Nearshore  1208   59 61   90/  4/  6 1029.0F


STATION/POSITION TIME  TEMP    WIND        PRES    WAVE   SWELL
                       AIR SEA DIR/SP/G            HT/PER HT/PER/DIR
                 (UTC) (F)     (DEG/KT/KT) (MB)    (FT/S) (FT/S/D)
5E St. Marys GA  1300      63                N/A     3/17   2/100/17
Frying Pan Buoy  1300   72     150/  2/  4 1031.7
Buoy 41025       1300   58      10/ 14/ 17 1032.8
Cape Lookout NC  1300           40/ 12/ 14 1032.9R
Buoy 41002       1250   72 72  120/ 10/ 12 1032.0R   6/ 9   5/110/ 9
Buoy 41010       NOT AVBL
St Augustine FL  1300   69 67   90/  6/  6 1029.3R


$$




USA.gov is the U.S. government's official web portal to all federal, state and local government web resources and services.